Regional Weather Roundup
Issued by NWS

Home | Current Version | Previous Version | Graphics & Text | Print | Product List | Glossary On
Versions: 1 2 3 4 5 6 7 8 9 10 11 12 13 14 15 16 17 18 19 20 21 22 23 24 25 26 27 28 29 30 31 32 33 34 35 36 37 38 39 40 41 42 43 44 45 46 47 48 49 50
696
ASUS43 KOAX 071610
RWRNE

WEATHER ROUNDUP FOR NEBRASKA
NATIONAL WEATHER SERVICE OMAHA NE
1000 AM CST SUN FEB 07 2016

NOTES: SATELLITE DATA IS BEING USED TO AUGMENT CLOUD COVER ABOVE
       12000 FEET.
       "FAIR" INDICATES FEW OR NO CLOUDS BELOW 12,000 FEET WITH NO
       SIGNIFICANT WEATHER AND/OR OBSTRUCTIONS TO VISIBILITY.

  * THESE STATIONS DO NOT REPORT WEATHER SUCH AS RAIN...SNOW OR FOG.

NEZ001>004-019>022-054>056-071700-
NEBRASKA PANHANDLE

CITY           SKY/WX    TMP DP  RH WIND       PRES   REMARKS
SCOTTSBLUFF    CLOUDY    31  22  69 NW15      30.29R WCI  20
ALLIANCE       CLOUDY    32  17  54 MISG      30.21R
CHADRON        SUNNY     35  16  45 NW18G25   30.22R WCI  24
KIMBALL        LGT SNOW  28  25  90 NW16G22   30.29R WCI  15
SIDNEY         LGT SNOW  29  26  89 NW23      30.28R FOG     WCI  15
$$

NEZ057>060-069>072-079>082-071700-
SOUTHWEST NEBRASKA

CITY           SKY/WX    TMP DP  RH WIND       PRES   REMARKS
NORTH PLATTE   CLOUDY    37  22  54 NW21      30.19R WCI  26
IMPERIAL       PTSUNNY   34  24  67 NW18      30.25R WCI  23
LEXINGTON      CLOUDY    37  24  60 NW15      30.17R WCI  28
MCCOOK         CLOUDY    37  25  61 NW14      30.22R WCI  28
OGALLALA       CLOUDY    34  23  64 NW24G30   30.24R WCI  22
$$

NEZ005>010-023>029-035>040-094-071700-
NORTH CENTRAL NEBRASKA

CITY           SKY/WX    TMP DP  RH WIND       PRES   REMARKS
VALENTINE      SUNNY     38  17  42 W26G40    30.06F WCI  26
AINSWORTH      SUNNY     38  17  42 W29G38    30.06F WCI  26
BROKEN BOW     MOSUNNY   38  23  55 NW21      30.12R WCI  28
O`NEILL        SUNNY     40  20  45 W28G37    30.02S WCI  28
ORD            MOSUNNY   39  23  52 NW21G29   30.08R WCI  29
THEDFORD       CLOUDY    40  19  43 NW25G35   30.14S WCI  29
$$

NEZ041-046>049-061>064-073>077-083>087-071700-
SOUTH CENTRAL NEBRASKA

CITY           SKY/WX    TMP DP  RH WIND       PRES   REMARKS
GRAND ISLAND   MOSUNNY   40  23  50 NW20      30.11R WCI  30
AURORA         SUNNY     38  25  58 NW23      30.10R WCI  27
HASTINGS       MOSUNNY   38  25  59 NW16      30.13R WCI  29
HEBRON         MOSUNNY   41  25  53 NW13G18   30.12R
HOLDREGE       PTSUNNY   36  24  62 NW13G20   30.16R WCI  28
YORK           MOSUNNY   37  27  65 NW22      30.07S WCI  27
$$

NEZ011>018-030>034-042>045-071700-
NORTHEAST NEBRASKA

CITY           SKY/WX    TMP DP  RH WIND       PRES   REMARKS
NORFOLK        MOSUNNY   38  26  62 W15       29.99S WCI  29
ALBION         MOSUNNY   38  24  57 NW17G25   30.05R WCI  29
BLAIR          MOSUNNY   39  27  62 W14G23    29.98S WCI  31
COLUMBUS *     MOSUNNY   37  21  52 W13G20    30.04S WCI  29
FREMONT        SUNNY     37  26  63 W17       30.01S WCI  28
TEKAMAH        CLOUDY    39  27  62 W24G33    29.97R WCI  28
WAYNE          CLOUDY    38  28  68 W23       29.98R WCI  27
$$

NEZ050>053-065>068-078-088>093-071700-
SOUTHEAST NEBRASKA

CITY           SKY/WX    TMP DP  RH WIND       PRES   REMARKS
LINCOLN        SUNNY     42  25  50 NW17      30.06R
OMAHA EPPLEY   MOSUNNY   41  26  55 W18       29.99R
BEATRICE       SUNNY     39  29  66 NW16      30.07R WCI  30
FALLS CITY     SUNNY     44  27  51 W14       30.04S
NEBRASKA CITY  SUNNY     39  27  62 NW14      30.03R WCI  30
PLATTSMOUTH    SUNNY     38  27  62 W10G16    30.01S WCI  31
$$

NEZ044-045-051>053-067-071700-
OMAHA AREA

CITY           SKY/WX    TMP DP  RH WIND       PRES   REMARKS
OMAHA EPPLEY   MOSUNNY   41  26  55 W18       29.99R
BLAIR          MOSUNNY   39  27  62 W14G23    29.98S WCI  31
FREMONT        SUNNY     37  26  63 W17       30.01S WCI  28
MILLARD        SUNNY     41  27  55 W17G28    30.00S
OFFUTT AFB     SUNNY     40  26  57 NW17      30.00R WCI  32
PLATTSMOUTH    SUNNY     38  27  62 W10G16    30.01S WCI  31
WAHOO          FAIR      40  27  59 W22       30.02R WCI  29
$$




USA.gov is the U.S. government's official web portal to all federal, state and local government web resources and services.